Weather History for Fremont, NE

Change the Weather History Date:

Thursday, March 21, 2013

  Actual Average Record
Temperature  
Mean Temperature 27 °F -  
Max Temperature 32 °F 53 °F 131 °F (1997)
Min Temperature 22 °F 28 °F -2 °F (1974)
Degree Days  
Heating Degree Days 38    
Moisture  
Dew Point 15 °F    
Average Humidity 62    
Maximum Humidity 76    
Minimum Humidity 46    
Precipitation  
Precipitation 0.00 in - - ()
Sea Level Pressure  
Sea Level Pressure 30.00 in    
Wind  
Wind Speed 6 mph (East)    
Max Wind Speed 12 mph    
Max Gust Speed -    
Visibility 10 miles    
Events      
Averages and records for this station are not official NWS values.
T = Trace of Precipitation, MM = Missing Value Source: NWS Daily Summary

Daily Weather History Graph

Daily Weather History Graph

Search for Another Location

Airport:

Trip Planner

Search our weather history database for the weather conditions in past years. The results will help you decide how hot, cold, wet, or windy it might be!

Date:

Astronomy

Mar. 21, 2013 Rise Set
Actual Time 7:27 AM CDT 7:39 PM CDT
Civil Twilight 6:59 AM CDT 8:07 PM CDT
Nautical Twilight 6:27 AM CDT 8:39 PM CDT
Astronomical Twilight 5:54 AM CDT 9:12 PM CDT
Moon 2:07 PM CDT (3/21) 3:53 AM CDT (3/21)
Length of Visible Light 13h 07m
Length of Day
12h 12m
Waxing Gibbous, 69% of the Moon is Illuminated
Mar 21
Waxing Gibbous
Mar 27
Full
Apr 2
Last Quarter
Apr 10
New
Apr 18
First Quarter

Hourly Weather History & Observations

Time (CDT) Temp. Windchill Dew Point Humidity Pressure Visibility Wind Dir Wind Speed Gust Speed Precip Events Conditions
12:15 AM 25.7 °F - 14.7 °F 63% 30.10 in 10.0 mi Calm Calm - N/A   Clear
12:35 AM 25.2 °F 20.9 °F 14.4 °F 64% 30.09 in 10.0 mi ENE 3.5 mph - N/A   Clear
1:15 AM 24.8 °F 20.5 °F 14.7 °F 66% 30.08 in 10.0 mi East 3.5 mph - N/A   Clear
1:35 AM 24.8 °F 19.1 °F 14.5 °F 65% 30.08 in 10.0 mi East 4.6 mph - N/A   Clear
1:55 AM 24.3 °F 19.9 °F 15.1 °F 68% 30.08 in 10.0 mi ESE 3.5 mph - N/A   Clear
2:15 AM 24.4 °F 20.1 °F 14.7 °F 67% 30.08 in 10.0 mi East 3.5 mph - N/A   Clear
2:35 AM 24.6 °F 16.7 °F 14.4 °F 65% 30.08 in 10.0 mi East 6.9 mph - N/A   Clear
2:55 AM 24.3 °F 15.4 °F 14.7 °F 67% 30.08 in 10.0 mi East 8.1 mph - N/A   Clear
3:15 AM 23.9 °F 15.8 °F 14.9 °F 69% 30.07 in 10.0 mi East 6.9 mph - N/A   Clear
3:35 AM 23.7 °F 14.0 °F 14.9 °F 69% 30.06 in 10.0 mi East 9.2 mph - N/A   Clear
3:55 AM 23.5 °F 14.5 °F 15.1 °F 70% 30.06 in 10.0 mi East 8.1 mph - N/A   Clear
4:15 AM 23.0 °F 13.9 °F 14.7 °F 71% 30.05 in 10.0 mi East 8.1 mph - N/A   Clear
4:35 AM 23.0 °F 13.1 °F 14.4 °F 70% 30.05 in 10.0 mi East 9.2 mph - N/A   Mostly Cloudy
4:55 AM 22.8 °F 12.9 °F 14.2 °F 69% 30.04 in 10.0 mi East 9.2 mph - N/A   Overcast
5:15 AM 22.8 °F 12.9 °F 14.5 °F 71% 30.04 in 10.0 mi East 9.2 mph - N/A   Overcast
5:35 AM 22.8 °F 13.6 °F 14.9 °F 72% 30.03 in 10.0 mi East 8.1 mph - N/A   Overcast
5:55 AM 22.6 °F 13.4 °F 14.9 °F 72% 30.02 in 10.0 mi East 8.1 mph - N/A   Overcast
6:15 AM 22.5 °F 12.4 °F 14.7 °F 72% 30.02 in 10.0 mi East 9.2 mph - N/A   Overcast
6:35 AM 22.5 °F 12.4 °F 15.3 °F 74% 30.02 in 10.0 mi East 9.2 mph - N/A   Overcast
6:55 AM 22.3 °F 12.2 °F 15.4 °F 75% 30.03 in 10.0 mi East 9.2 mph - N/A   Overcast
7:15 AM 22.3 °F 11.5 °F 15.4 °F 75% 30.03 in 10.0 mi East 10.4 mph - N/A   Overcast
7:35 AM 22.1 °F 12.0 °F 15.6 °F 76% 30.02 in 10.0 mi East 9.2 mph - N/A   Overcast
7:55 AM 22.1 °F 12.8 °F 15.4 °F 76% 30.03 in 10.0 mi East 8.1 mph - N/A   Overcast
8:15 AM 22.8 °F 12.9 °F 15.4 °F 73% 30.03 in 10.0 mi ESE 9.2 mph - N/A   Overcast
8:35 AM 22.8 °F 12.2 °F 15.4 °F 73% 30.03 in 10.0 mi ESE 10.4 mph - N/A   Overcast
8:55 AM 23.4 °F 14.3 °F 16.2 °F 74% 30.03 in 10.0 mi East 8.1 mph - N/A   Overcast
9:15 AM 23.5 °F 12.4 °F 16.3 °F 74% 30.03 in 10.0 mi ESE 11.5 mph - N/A   Overcast
9:35 AM 23.5 °F 13.7 °F 16.5 °F 75% 30.03 in 10.0 mi ESE 9.2 mph - N/A   Overcast
9:55 AM 23.9 °F 14.2 °F 16.3 °F 73% 30.02 in 10.0 mi East 9.2 mph - N/A   Overcast
10:15 AM 24.6 °F 14.4 °F 15.8 °F 69% 30.01 in 10.0 mi ESE 10.4 mph - N/A   Overcast
10:35 AM 24.6 °F 15.1 °F 15.3 °F 68% 30.02 in 10.0 mi ESE 9.2 mph - N/A   Overcast
10:55 AM 24.6 °F 14.4 °F 14.9 °F 67% 30.01 in 10.0 mi ESE 10.4 mph - N/A   Overcast
11:15 AM 24.8 °F 16.1 °F 14.7 °F 66% 30.01 in 10.0 mi SE 8.1 mph - N/A   Overcast
11:35 AM 25.5 °F 16.2 °F 14.9 °F 64% 30.01 in 10.0 mi ESE 9.2 mph - N/A   Overcast
11:55 AM 25.7 °F 19.0 °F 15.8 °F 66% 30.00 in 10.0 mi ESE 5.8 mph - N/A   Overcast
12:15 PM 26.4 °F 18.0 °F 15.8 °F 64% 29.99 in 10.0 mi ESE 8.1 mph - N/A   Overcast
12:35 PM 26.4 °F 18.9 °F 15.3 °F 63% 29.99 in 10.0 mi ESE 6.9 mph - N/A   Overcast
12:55 PM 27.0 °F 18.0 °F 15.6 °F 62% 29.98 in 10.0 mi East 9.2 mph - N/A   Overcast
1:15 PM 27.5 °F 20.2 °F 15.6 °F 61% 29.98 in 10.0 mi SE 6.9 mph - N/A   Overcast
1:35 PM 28.2 °F 19.5 °F 15.6 °F 59% 29.97 in 10.0 mi ESE 9.2 mph - N/A   Overcast
1:55 PM 28.2 °F 19.5 °F 15.1 °F 58% 29.96 in 10.0 mi SE 9.2 mph - N/A   Overcast
2:15 PM 28.4 °F 23.3 °F 15.6 °F 59% 29.96 in 10.0 mi ESE 4.6 mph - N/A   Overcast
2:35 PM 28.8 °F 23.7 °F 15.4 °F 58% 29.94 in 10.0 mi ESE 4.6 mph - N/A   Overcast
2:55 PM 29.7 °F 22.0 °F 15.4 °F 55% 29.94 in 10.0 mi East 8.1 mph - N/A   Overcast
3:15 PM 30.0 °F 23.2 °F 15.6 °F 55% 29.93 in 10.0 mi East 6.9 mph - N/A   Overcast
3:35 PM 30.0 °F 21.7 °F 15.1 °F 54% 29.92 in 10.0 mi East 9.2 mph - N/A   Overcast
3:55 PM 30.2 °F 21.3 °F 14.4 °F 52% 29.92 in 10.0 mi East 10.4 mph - N/A   Overcast
4:15 PM 30.7 °F 24.9 °F 15.1 °F 52% 29.92 in 10.0 mi East 5.8 mph - N/A   Overcast
4:35 PM 30.9 °F 23.5 °F 14.9 °F 52% 29.92 in 10.0 mi East 8.1 mph - N/A   Overcast
4:55 PM 31.3 °F 23.3 °F 14.9 °F 51% 29.92 in 10.0 mi ENE 9.2 mph - N/A   Overcast
5:15 PM 31.5 °F 24.2 °F 14.7 °F 50% 29.92 in 10.0 mi ENE 8.1 mph - N/A   Overcast
5:35 PM 31.8 °F 23.9 °F 14.2 °F 48% 29.92 in 10.0 mi East 9.2 mph - N/A   Overcast
5:55 PM 31.8 °F 26.2 °F 13.8 °F 47% 29.92 in 10.0 mi ENE 5.8 mph - N/A   Overcast
6:15 PM 32.0 °F 24.8 °F 14.5 °F 49% 29.92 in 10.0 mi ENE 8.1 mph - N/A   Overcast
6:35 PM 31.8 °F 25.4 °F 14.4 °F 49% 29.92 in 10.0 mi East 6.9 mph - N/A   Overcast
6:55 PM 32.0 °F 26.4 °F 13.6 °F 47% 29.93 in 10.0 mi East 5.8 mph - N/A   Overcast
7:15 PM 32.0 °F 24.8 °F 13.1 °F 46% 29.94 in 10.0 mi East 8.1 mph - N/A   Overcast
7:35 PM 32.0 °F 26.4 °F 13.6 °F 47% 29.94 in 10.0 mi East 5.8 mph - N/A   Overcast
7:55 PM 32.0 °F 26.4 °F 13.8 °F 47% 29.94 in 10.0 mi East 5.8 mph - N/A   Overcast
8:15 PM 32.0 °F 26.4 °F 13.8 °F 47% 29.94 in 10.0 mi East 5.8 mph - N/A   Overcast
8:35 PM 32.0 °F 28.7 °F 15.3 °F 50% 29.94 in 10.0 mi East 3.5 mph - N/A   Overcast
8:55 PM 32.0 °F 27.5 °F 15.6 °F 51% 29.96 in 10.0 mi East 4.6 mph - N/A   Overcast
9:15 PM 32.0 °F 27.5 °F 15.6 °F 51% 29.96 in 10.0 mi East 4.6 mph - N/A   Overcast
9:35 PM 32.0 °F - 16.3 °F 52% 29.97 in 10.0 mi Calm Calm - N/A   Overcast
9:55 PM 32.0 °F 28.7 °F 16.5 °F 53% 29.97 in 10.0 mi NE 3.5 mph - N/A   Overcast
10:15 PM 32.0 °F 28.7 °F 18.0 °F 56% 29.98 in 10.0 mi NE 3.5 mph - N/A   Overcast
10:35 PM 31.8 °F 28.5 °F 17.8 °F 56% 29.98 in 10.0 mi ENE 3.5 mph - N/A   Overcast
10:55 PM 31.8 °F 28.5 °F 18.5 °F 58% 29.99 in 10.0 mi NE 3.5 mph - N/A   Overcast
11:15 PM 31.8 °F - 18.1 °F 57% 29.99 in 10.0 mi Calm Calm - N/A   Overcast
11:35 PM 31.8 °F 28.5 °F 18.3 °F 57% 29.99 in 10.0 mi NE 3.5 mph - N/A   Overcast
11:55 PM 31.8 °F 28.5 °F 18.7 °F 58% 29.99 in 10.0 mi NE 3.5 mph - N/A   Overcast